RYR51AD LEPA-EDDK

Flight info

Callsign RYR51AD
Flight time 1h 54m
Altitude 34000
Route GALAT N861 OLOXO DCT OKABI DCT TOU DCT ADABI DCT BOKNO DCT DIBES DCT VIQAQ DCT TSU DCT OQQAL DCT RANUX/N0437F350 DCT VALEK DCT LUTAX UM163 DIK N853 ARCKY T853 IBESA T860 ERUKI
Aircraft A320/M-SDE3FGHIRWY/LB1

Departure

Time 2026-05-03 20:38
Airport Palma de Mallorca Airport (LEPA)

Arrival

Time 2026-05-03 22:32
Airport Cologne Bonn Airport (EDDK)
Time Latitude Longitude Altitude Speed Heading
2026-05-03 20:15 39.54967 2.72629 30 ft 0 kts 148°
2026-05-03 20:24 39.54974 2.72623 30 ft 2 kts 144°
2026-05-03 20:24 39.54987 2.72610 30 ft 2 kts 140°
2026-05-03 20:25 39.54999 2.72596 30 ft 2 kts 132°
2026-05-03 20:25 39.55010 2.72580 29 ft 2 kts 120°
2026-05-03 20:25 39.55016 2.72561 29 ft 2 kts 97°
2026-05-03 20:25 39.55016 2.72540 29 ft 2 kts 71°
2026-05-03 20:26 39.55011 2.72523 29 ft 1 kts 57°
2026-05-03 20:26 39.55009 2.72520 29 ft 0 kts 56°
2026-05-03 20:26 39.55010 2.72521 29 ft 0 kts 56°
2026-05-03 20:29 39.55011 2.72523 29 ft 1 kts 56°
2026-05-03 20:29 39.55018 2.72536 29 ft 3 kts 57°
2026-05-03 20:29 39.55033 2.72556 29 ft 2 kts
2026-05-03 20:30 39.55051 2.72540 29 ft 4 kts 329°
2026-05-03 20:30 39.55085 2.72514 29 ft 7 kts 329°
2026-05-03 20:30 39.55135 2.72476 28 ft 9 kts 329°
2026-05-03 20:30 39.55176 2.72497 28 ft 8 kts 56°
2026-05-03 20:31 39.55210 2.72565 29 ft 10 kts 58°
2026-05-03 20:31 39.55249 2.72647 29 ft 12 kts 58°
2026-05-03 20:31 39.55295 2.72744 30 ft 14 kts 58°
2026-05-03 20:31 39.55348 2.72855 31 ft 15 kts 58°
2026-05-03 20:32 39.55401 2.72969 31 ft 16 kts 59°
2026-05-03 20:32 39.55461 2.73097 32 ft 17 kts 59°
2026-05-03 20:32 39.55523 2.73229 33 ft 15 kts 58°
2026-05-03 20:32 39.55580 2.73350 33 ft 17 kts 58°
2026-05-03 20:33 39.55643 2.73484 34 ft 18 kts 58°
2026-05-03 20:33 39.55713 2.73627 35 ft 19 kts 58°
2026-05-03 20:33 39.55784 2.73773 35 ft 19 kts 57°
2026-05-03 20:33 39.55855 2.73922 36 ft 20 kts 60°
2026-05-03 20:34 39.55915 2.74051 36 ft 17 kts 58°
2026-05-03 20:34 39.55978 2.74182 38 ft 17 kts 58°
2026-05-03 20:34 39.56044 2.74260 39 ft 8 kts 33°
2026-05-03 20:34 39.56099 2.74307 39 ft 10 kts 34°
2026-05-03 20:35 39.56151 2.74354 40 ft 1 kts 32°
2026-05-03 20:35 39.56156 2.74358 40 ft 0 kts 32°
2026-05-03 20:36 39.56167 2.74367 40 ft 5 kts 31°
2026-05-03 20:36 39.56209 2.74362 38 ft 7 kts 324°
2026-05-03 20:36 39.56248 2.74312 40 ft 8 kts 279°
2026-05-03 20:37 39.56221 2.74239 39 ft 8 kts 239°
2026-05-03 20:37 39.56220 2.74236 39 ft 1 kts 239°
2026-05-03 20:37 39.56205 2.74205 39 ft 17 kts 239°
2026-05-03 20:37 39.56008 2.73788 35 ft 89 kts 238°
2026-05-03 20:38 39.55575 2.72885 32 ft 143 kts 238°
2026-05-03 20:38 39.54969 2.71647 157 ft 173 kts 236°
2026-05-03 20:38 39.54293 2.70383 781 ft 170 kts 233°
2026-05-03 20:38 39.53585 2.69157 1413 ft 170 kts 229°
2026-05-03 20:39 39.52857 2.67896 1861 ft 182 kts 232°
2026-05-03 20:39 39.52155 2.66444 2236 ft 199 kts 238°
2026-05-03 20:39 39.51450 2.64792 2622 ft 216 kts 238°
2026-05-03 20:39 39.50686 2.63162 3503 ft 212 kts 237°
2026-05-03 20:40 39.49905 2.61580 4285 ft 212 kts 236°
2026-05-03 20:40 39.49094 2.59972 5056 ft 214 kts 236°
2026-05-03 20:40 39.48277 2.58365 5849 ft 214 kts 237°
2026-05-03 20:40 39.47455 2.56755 6624 ft 214 kts 237°
2026-05-03 20:41 39.46634 2.55148 7345 ft 216 kts 237°
2026-05-03 20:41 39.45806 2.53524 8104 ft 216 kts 237°
2026-05-03 20:41 39.45063 2.51803 8677 ft 228 kts 255°
2026-05-03 20:41 39.45116 2.49670 8968 ft 256 kts 287°
2026-05-03 20:42 39.46213 2.47756 9462 ft 279 kts 317°
2026-05-03 20:42 39.47800 2.46250 10165 ft 285 kts 319°
2026-05-03 20:42 39.49461 2.44698 10478 ft 306 kts 319°
2026-05-03 20:42 39.51251 2.43023 10664 ft 328 kts 319°
2026-05-03 20:43 39.53128 2.41266 11151 ft 337 kts 319°
2026-05-03 20:43 39.55081 2.39477 11788 ft 343 kts 323°
2026-05-03 20:43 39.57105 2.37908 12394 ft 347 kts 324°
2026-05-03 20:43 39.59221 2.36324 13056 ft 351 kts 325°
2026-05-03 20:44 39.61355 2.34757 13744 ft 355 kts 325°
2026-05-03 20:44 39.63518 2.33173 14339 ft 358 kts 325°
2026-05-03 20:44 39.65696 2.31570 14924 ft 362 kts 325°
2026-05-03 20:44 39.67890 2.29941 15484 ft 365 kts 325°
2026-05-03 20:45 39.70099 2.28291 16037 ft 368 kts 324°
2026-05-03 20:45 39.72326 2.26619 16594 ft 372 kts 324°
2026-05-03 20:45 39.74570 2.24930 17160 ft 375 kts 324°
2026-05-03 20:45 39.76839 2.23226 17737 ft 378 kts 324°
2026-05-03 20:46 39.79128 2.21506 18321 ft 382 kts 325°
2026-05-03 20:46 39.81440 2.19766 18798 ft 386 kts 325°
2026-05-03 20:46 39.83779 2.18010 19315 ft 390 kts 325°
2026-05-03 20:46 39.86136 2.16237 19841 ft 393 kts 325°
2026-05-03 20:47 39.88510 2.14450 20384 ft 396 kts 325°
2026-05-03 20:47 39.90475 2.12971 20798 ft 399 kts 325°
2026-05-03 20:47 39.92886 2.11156 21306 ft 402 kts 325°
2026-05-03 20:47 39.95316 2.09326 21812 ft 405 kts 325°
2026-05-03 20:48 39.97764 2.07480 22289 ft 408 kts 325°
2026-05-03 20:48 40.00234 2.05616 22762 ft 411 kts 325°
2026-05-03 20:48 40.02720 2.03741 23237 ft 415 kts 325°
2026-05-03 20:48 40.05225 2.01844 23675 ft 418 kts 325°
2026-05-03 20:49 40.07743 1.99929 24060 ft 420 kts 325°
2026-05-03 20:49 40.10277 1.97999 24452 ft 422 kts 325°
2026-05-03 20:49 40.12819 1.96067 24842 ft 424 kts 326°
2026-05-03 20:49 40.15515 1.94423 25228 ft 432 kts 336°
2026-05-03 20:50 40.18435 1.93374 25604 ft 439 kts 345°
2026-05-03 20:50 40.21449 1.92691 25977 ft 441 kts 346°
2026-05-03 20:50 40.24480 1.91999 26357 ft 443 kts 346°
2026-05-03 20:50 40.27527 1.91294 26681 ft 446 kts 346°
2026-05-03 20:51 40.30588 1.90579 27048 ft 448 kts 346°
2026-05-03 20:51 40.33658 1.89858 27429 ft 449 kts 346°
2026-05-03 20:51 40.36745 1.89135 27795 ft 451 kts 346°
2026-05-03 20:51 40.39841 1.88413 28139 ft 453 kts 346°
2026-05-03 20:52 40.42952 1.87690 28487 ft 455 kts 346°
2026-05-03 20:52 40.46074 1.86959 28833 ft 457 kts 346°
2026-05-03 20:52 40.49215 1.86222 29157 ft 459 kts 346°
2026-05-03 20:52 40.52364 1.85484 29477 ft 461 kts 346°
2026-05-03 20:53 40.55526 1.84745 29912 ft 461 kts 346°
2026-05-03 20:53 40.58680 1.84011 30342 ft 460 kts 346°
2026-05-03 20:53 40.61826 1.83278 30736 ft 459 kts 346°
2026-05-03 20:53 40.64963 1.82545 31127 ft 458 kts 346°
2026-05-03 20:54 40.67038 1.82058 31386 ft 457 kts 346°
2026-05-03 20:54 40.73290 1.80583 32184 ft 456 kts 346°
2026-05-03 20:54 40.76413 1.79844 32583 ft 455 kts 345°
2026-05-03 20:55 40.79525 1.79104 32985 ft 454 kts 345°
2026-05-03 20:55 40.82633 1.78368 33380 ft 454 kts 345°
2026-05-03 20:55 40.85740 1.77632 33794 ft 453 kts 345°
2026-05-03 20:55 40.88838 1.76895 33989 ft 454 kts 345°
2026-05-03 20:56 40.95112 1.75404 34016 ft 460 kts 345°
2026-05-03 20:56 41.01420 1.73906 34019 ft 461 kts 345°
2026-05-03 20:57 41.07715 1.72484 34021 ft 462 kts 347°
2026-05-03 20:57 41.14113 1.71479 34024 ft 465 kts 350°
2026-05-03 20:58 41.20552 1.70643 34025 ft 466 kts 350°
2026-05-03 20:58 41.27007 1.69717 34028 ft 466 kts 349°
2026-05-03 20:59 41.33436 1.68702 34029 ft 465 kts 349°
2026-05-03 20:59 41.39876 1.67676 34041 ft 467 kts 349°
2026-05-03 21:00 41.45233 1.66837 34039 ft 467 kts 349°
2026-05-03 21:00 41.52853 1.65644 34040 ft 472 kts 349°
2026-05-03 21:01 41.59360 1.64633 34030 ft 471 kts 349°
2026-05-03 21:01 41.62624 1.64126 34339 ft 471 kts 349°
2026-05-03 21:01 41.65876 1.63619 34704 ft 470 kts 349°
2026-05-03 21:02 41.69120 1.63111 35037 ft 469 kts 349°
2026-05-03 21:02 41.72354 1.62603 35383 ft 467 kts 349°
2026-05-03 21:02 41.75579 1.62093 35692 ft 466 kts 349°
2026-05-03 21:02 41.78311 1.61662 35937 ft 467 kts 349°
2026-05-03 21:03 41.84764 1.60644 36034 ft 467 kts 349°
2026-05-03 21:03 41.91212 1.59628 36028 ft 466 kts 349°
2026-05-03 21:04 41.97661 1.58609 36040 ft 467 kts 349°
2026-05-03 21:04 42.04109 1.57578 36029 ft 467 kts 349°
2026-05-03 21:05 42.10558 1.56551 36026 ft 467 kts 348°
2026-05-03 21:05 42.17013 1.55518 36043 ft 467 kts 349°
2026-05-03 21:06 42.23449 1.54493 35739 ft 463 kts 349°
2026-05-03 21:06 42.26647 1.53987 35141 ft 463 kts 349°
2026-05-03 21:06 42.29853 1.53475 34496 ft 465 kts 349°
2026-05-03 21:07 42.33066 1.52960 34157 ft 465 kts 349°
2026-05-03 21:07 42.36292 1.52440 33993 ft 468 kts 349°
2026-05-03 21:07 42.42788 1.51397 34037 ft 471 kts 349°
2026-05-03 21:08 42.49302 1.50354 34036 ft 472 kts 349°
2026-05-03 21:08 42.55820 1.49306 34029 ft 472 kts 349°
2026-05-03 21:09 42.62292 1.48261 34024 ft 472 kts 349°
2026-05-03 21:09 42.68808 1.47204 34011 ft 472 kts 349°
2026-05-03 21:10 42.75345 1.46153 34014 ft 473 kts 349°
2026-05-03 21:10 42.81876 1.45111 34008 ft 473 kts 349°
2026-05-03 21:11 42.88412 1.44053 33992 ft 473 kts 349°
2026-05-03 21:11 42.94938 1.42994 33992 ft 472 kts 349°
2026-05-03 21:12 43.01461 1.41936 34004 ft 472 kts 349°
2026-05-03 21:12 43.07983 1.40876 33987 ft 472 kts 349°
2026-05-03 21:13 43.14500 1.39816 33986 ft 472 kts 349°
2026-05-03 21:13 43.21022 1.38750 33986 ft 472 kts 349°
2026-05-03 21:14 43.27587 1.37667 33984 ft 472 kts 349°
2026-05-03 21:14 43.34079 1.36601 33985 ft 473 kts 349°
2026-05-03 21:15 43.40612 1.35531 33981 ft 473 kts 349°
2026-05-03 21:15 43.47147 1.34452 33998 ft 473 kts 348°
2026-05-03 21:16 43.53675 1.33374 33994 ft 473 kts 348°
2026-05-03 21:16 43.60220 1.32289 34012 ft 474 kts 348°
2026-05-03 21:17 43.65705 1.31376 34027 ft 474 kts 348°
2026-05-03 21:17 43.73207 1.29877 34021 ft 471 kts 345°
2026-05-03 21:18 43.79625 1.28147 34017 ft 470 kts 343°
2026-05-03 21:18 43.86028 1.26352 34024 ft 469 kts 343°
2026-05-03 21:19 43.92428 1.24664 34015 ft 469 kts 344°
2026-05-03 21:19 43.98845 1.23029 34004 ft 468 kts 344°
2026-05-03 21:20 44.05254 1.21386 34012 ft 468 kts 344°
2026-05-03 21:20 44.11631 1.19716 34002 ft 468 kts 343°
2026-05-03 21:21 44.18037 1.18034 33997 ft 468 kts 343°
2026-05-03 21:21 44.24449 1.16359 34011 ft 469 kts 343°
2026-05-03 21:22 44.30861 1.14676 34001 ft 469 kts 343°
2026-05-03 21:22 44.37290 1.12990 33988 ft 471 kts 344°
2026-05-03 21:23 44.43734 1.11291 33997 ft 472 kts 344°
2026-05-03 21:23 44.50187 1.09583 34004 ft 472 kts 344°
2026-05-03 21:24 44.56641 1.07876 34008 ft 472 kts 344°
2026-05-03 21:24 44.63083 1.06168 34193 ft 476 kts 344°
2026-05-03 21:25 44.66331 1.05303 34499 ft 476 kts 344°
2026-05-03 21:25 44.69584 1.04436 34836 ft 475 kts 344°
2026-05-03 21:25 44.72819 1.03574 35171 ft 474 kts 344°
2026-05-03 21:25 44.76059 1.02710 35503 ft 473 kts 344°
2026-05-03 21:26 44.79290 1.01848 35833 ft 472 kts 344°
2026-05-03 21:26 44.82508 1.00992 36027 ft 471 kts 344°
2026-05-03 21:26 44.85735 1.00135 36282 ft 470 kts 344°
2026-05-03 21:26 44.88943 0.99280 36544 ft 469 kts 343°
2026-05-03 21:27 44.92144 0.98423 36806 ft 468 kts 343°
2026-05-03 21:27 44.95342 0.97560 37068 ft 467 kts 343°
2026-05-03 21:27 44.98523 0.96702 37336 ft 466 kts 343°
2026-05-03 21:27 45.01708 0.95844 37624 ft 465 kts 343°
2026-05-03 21:28 45.04882 0.94983 37894 ft 464 kts 343°
2026-05-03 21:28 45.08052 0.94124 38000 ft 464 kts 343°
2026-05-03 21:28 45.14391 0.92412 38028 ft 463 kts 343°
2026-05-03 21:29 45.20723 0.90704 38035 ft 463 kts 343°
2026-05-03 21:29 45.26999 0.89002 38029 ft 462 kts 343°
2026-05-03 21:30 45.33313 0.87291 38027 ft 462 kts 343°
2026-05-03 21:30 45.39632 0.85568 38036 ft 463 kts 343°
2026-05-03 21:31 45.45962 0.83832 38030 ft 464 kts 343°
2026-05-03 21:31 45.52293 0.82097 37765 ft 462 kts 343°
2026-05-03 21:32 45.55410 0.81247 37234 ft 461 kts 343°
2026-05-03 21:32 45.58572 0.80382 36618 ft 461 kts 343°
2026-05-03 21:32 45.61734 0.79510 35909 ft 464 kts 343°
2026-05-03 21:32 45.64913 0.78630 35224 ft 467 kts 343°
2026-05-03 21:33 45.68119 0.77745 34548 ft 471 kts 343°
2026-05-03 21:33 45.71339 0.76855 34142 ft 472 kts 343°
2026-05-03 21:33 45.74580 0.75959 33952 ft 476 kts 343°
2026-05-03 21:33 45.77843 0.75058 34015 ft 479 kts 343°
2026-05-03 21:34 45.84418 0.73241 33999 ft 482 kts 343°
2026-05-03 21:34 45.90980 0.71414 33999 ft 482 kts 343°
2026-05-03 21:35 45.97557 0.69584 34016 ft 482 kts 343°
2026-05-03 21:35 46.04144 0.67744 33981 ft 482 kts 343°
2026-05-03 21:36 46.10729 0.65902 33985 ft 482 kts 343°
2026-05-03 21:36 46.17316 0.64046 33995 ft 482 kts 342°
2026-05-03 21:37 46.22794 0.62511 33991 ft 482 kts 342°
2026-05-03 21:37 46.29384 0.60659 33987 ft 482 kts 342°
2026-05-03 21:38 46.35971 0.58797 33984 ft 482 kts 342°
2026-05-03 21:38 46.43632 0.56622 33995 ft 483 kts 342°
2026-05-03 21:39 46.49146 0.55054 33985 ft 482 kts 342°
2026-05-03 21:39 46.55839 0.53825 33983 ft 492 kts 355°
2026-05-03 21:40 46.62670 0.55242 33989 ft 500 kts
2026-05-03 21:40 46.69438 0.57473 33983 ft 501 kts
2026-05-03 21:41 46.76236 0.59700 33980 ft 501 kts
2026-05-03 21:41 46.83012 0.61952 33979 ft 501 kts
2026-05-03 21:42 46.89809 0.64211 33977 ft 501 kts
2026-05-03 21:42 46.96605 0.66475 33986 ft 501 kts
2026-05-03 21:43 47.03370 0.68949 33986 ft 504 kts 17°
2026-05-03 21:43 47.09653 0.73556 33984 ft 507 kts 30°
2026-05-03 21:44 47.15621 0.78892 33978 ft 507 kts 31°
2026-05-03 21:44 47.18409 0.82038 33982 ft 506 kts 46°
2026-05-03 21:44 47.20854 0.85756 33958 ft 506 kts 47°
2026-05-03 21:45 47.25715 0.93273 33956 ft 508 kts 47°
2026-05-03 21:45 47.30579 1.00847 33961 ft 509 kts 47°
2026-05-03 21:46 47.35437 1.08441 33967 ft 509 kts 47°
2026-05-03 21:46 47.40305 1.16048 33980 ft 510 kts 47°
2026-05-03 21:47 47.45178 1.23664 33977 ft 511 kts 47°
2026-05-03 21:47 47.50055 1.31307 33964 ft 511 kts 47°
2026-05-03 21:48 47.54922 1.38974 33974 ft 511 kts 47°
2026-05-03 21:48 47.59784 1.46667 33991 ft 512 kts 47°
2026-05-03 21:49 47.64652 1.54393 33988 ft 513 kts 47°
2026-05-03 21:49 47.69518 1.62123 33988 ft 513 kts 47°
2026-05-03 21:50 47.74363 1.69838 33968 ft 513 kts 47°
2026-05-03 21:50 47.79226 1.77614 34001 ft 513 kts 47°
2026-05-03 21:51 47.84081 1.85396 33991 ft 513 kts 47°
2026-05-03 21:51 47.88909 1.93159 34014 ft 513 kts 47°
2026-05-03 21:52 47.93752 2.00972 34022 ft 513 kts 47°
2026-05-03 21:52 47.98582 2.08791 34013 ft 513 kts 47°
2026-05-03 21:53 48.03410 2.16629 34005 ft 512 kts 46°
2026-05-03 21:53 48.08228 2.24459 34009 ft 511 kts 46°
2026-05-03 21:54 48.13032 2.32290 34009 ft 510 kts 47°
2026-05-03 21:54 48.17788 2.40073 34004 ft 510 kts 47°
2026-05-03 21:55 48.22566 2.47919 34000 ft 510 kts 47°
2026-05-03 21:55 48.27341 2.55780 33989 ft 510 kts 47°
2026-05-03 21:56 48.32100 2.63656 33972 ft 509 kts 47°
2026-05-03 21:56 48.36856 2.71540 33985 ft 508 kts 47°
2026-05-03 21:57 48.41595 2.79419 33994 ft 508 kts 47°
2026-05-03 21:57 48.46314 2.87279 33981 ft 508 kts 47°
2026-05-03 21:58 48.51039 2.95174 33975 ft 508 kts 47°
2026-05-03 21:58 48.55768 3.03103 33941 ft 508 kts 47°
2026-05-03 21:59 48.60476 3.11027 33982 ft 506 kts 47°
2026-05-03 21:59 48.65175 3.18959 33994 ft 506 kts 47°
2026-05-03 22:00 48.69846 3.26871 33991 ft 506 kts 47°
2026-05-03 22:00 48.74529 3.34816 33992 ft 505 kts 47°
2026-05-03 22:01 48.79209 3.42763 33982 ft 505 kts 47°
2026-05-03 22:01 48.83879 3.50735 33973 ft 505 kts 47°
2026-05-03 22:02 48.88532 3.58719 33984 ft 504 kts 47°
2026-05-03 22:02 48.93179 3.66699 33986 ft 503 kts 47°
2026-05-03 22:03 48.97814 3.74674 33984 ft 503 kts 47°
2026-05-03 22:03 49.02439 3.82655 33988 ft 502 kts 47°
2026-05-03 22:04 49.07046 3.90647 33987 ft 502 kts 47°
2026-05-03 22:04 49.11649 3.98658 33986 ft 502 kts 47°
2026-05-03 22:05 49.16241 4.06682 33985 ft 502 kts 48°
2026-05-03 22:05 49.20837 4.14716 33985 ft 502 kts 47°
2026-05-03 22:06 49.25432 4.22768 33992 ft 502 kts 48°
2026-05-03 22:06 49.29989 4.30778 33990 ft 502 kts 48°
2026-05-03 22:07 49.34564 4.38867 33975 ft 502 kts 48°
2026-05-03 22:07 49.39134 4.46976 33969 ft 502 kts 48°
2026-05-03 22:08 49.43681 4.55039 33993 ft 501 kts 48°
2026-05-03 22:08 49.48230 4.63145 33989 ft 500 kts 48°
2026-05-03 22:09 49.52767 4.71258 33992 ft 500 kts 48°
2026-05-03 22:10 49.59541 4.83434 33990 ft 499 kts 48°
2026-05-03 22:10 49.63864 4.91209 33986 ft 500 kts 48°
2026-05-03 22:11 49.68378 4.99362 33983 ft 499 kts 48°
2026-05-03 22:11 49.72874 5.07515 33998 ft 498 kts 49°
2026-05-03 22:12 49.77360 5.15680 33999 ft 497 kts 49°
2026-05-03 22:12 49.81374 5.23017 33995 ft 497 kts 49°
2026-05-03 22:12 49.83610 5.27102 33648 ft 498 kts 49°
2026-05-03 22:13 49.85865 5.31227 32074 ft 506 kts 50°
2026-05-03 22:13 49.88127 5.35365 30983 ft 502 kts 50°
2026-05-03 22:13 49.90347 5.39429 30701 ft 491 kts 50°
2026-05-03 22:13 49.92544 5.43465 30066 ft 490 kts 50°
2026-05-03 22:14 49.94733 5.47503 29393 ft 486 kts 50°
2026-05-03 22:14 49.96896 5.51501 28808 ft 481 kts 50°
2026-05-03 22:14 49.99035 5.55459 28222 ft 476 kts 50°
2026-05-03 22:14 50.01154 5.59385 27634 ft 472 kts 50°
2026-05-03 22:15 50.03257 5.63283 27049 ft 468 kts 50°
2026-05-03 22:15 50.05325 5.67118 26490 ft 464 kts 50°
2026-05-03 22:15 50.07391 5.70954 25941 ft 461 kts 50°
2026-05-03 22:15 50.09438 5.74760 25403 ft 457 kts 50°
2026-05-03 22:16 50.11470 5.78544 24885 ft 453 kts 50°
2026-05-03 22:16 50.13483 5.82296 24358 ft 450 kts 50°
2026-05-03 22:16 50.15478 5.86027 23855 ft 446 kts 51°
2026-05-03 22:16 50.17457 5.89741 23319 ft 444 kts 51°
2026-05-03 22:17 50.19409 5.93412 22793 ft 439 kts 51°
2026-05-03 22:17 50.21353 5.97067 22285 ft 435 kts 51°
2026-05-03 22:17 50.23284 6.00688 21764 ft 433 kts 51°
2026-05-03 22:17 50.25200 6.04291 21247 ft 430 kts 51°
2026-05-03 22:18 50.27080 6.07845 20716 ft 429 kts 51°
2026-05-03 22:18 50.28988 6.11389 20290 ft 425 kts 47°
2026-05-03 22:18 50.31177 6.14481 19796 ft 422 kts 35°
2026-05-03 22:18 50.33604 6.17030 19231 ft 421 kts 32°
2026-05-03 22:19 50.36035 6.19516 18905 ft 414 kts 32°
2026-05-03 22:19 50.38439 6.21975 18405 ft 412 kts 32°
2026-05-03 22:19 50.40825 6.24424 17885 ft 408 kts 32°
2026-05-03 22:19 50.43189 6.26859 17353 ft 405 kts 32°
2026-05-03 22:20 50.45527 6.29270 16766 ft 397 kts 32°
2026-05-03 22:20 50.47708 6.31838 16093 ft 387 kts 42°
2026-05-03 22:20 50.49492 6.34948 15607 ft 384 kts 54°
2026-05-03 22:20 50.50845 6.38528 15128 ft 380 kts 66°
2026-05-03 22:21 50.51888 6.42325 14640 ft 377 kts 68°
2026-05-03 22:21 50.52912 6.46084 14154 ft 374 kts 67°
2026-05-03 22:21 50.53936 6.49830 13665 ft 371 kts 67°
2026-05-03 22:21 50.54951 6.53546 13152 ft 368 kts 68°
2026-05-03 22:22 50.55617 6.55988 12854 ft 365 kts 68°
2026-05-03 22:22 50.56943 6.60869 12229 ft 360 kts 68°
2026-05-03 22:22 50.57917 6.64474 11755 ft 357 kts 68°
2026-05-03 22:22 50.58886 6.68057 11307 ft 355 kts 68°
2026-05-03 22:23 50.60068 6.71444 10861 ft 352 kts 54°
2026-05-03 22:23 50.61722 6.74262 10415 ft 350 kts 39°
2026-05-03 22:23 50.63727 6.76326 10190 ft 338 kts 24°
2026-05-03 22:23 50.65146 6.77236 10112 ft 329 kts 15°
2026-05-03 22:24 50.68008 6.78583 9947 ft 314 kts 14°
2026-05-03 22:24 50.69393 6.79234 9628 ft 316 kts 14°
2026-05-03 22:24 50.71506 6.80228 9268 ft 314 kts 14°
2026-05-03 22:24 50.73573 6.81204 8849 ft 307 kts 14°
2026-05-03 22:25 50.75610 6.82164 8218 ft 304 kts 14°
2026-05-03 22:25 50.77623 6.83114 7613 ft 300 kts 14°
2026-05-03 22:25 50.79613 6.84051 7028 ft 297 kts 14°
2026-05-03 22:25 50.81580 6.84974 6463 ft 293 kts 14°
2026-05-03 22:26 50.83518 6.85880 5878 ft 289 kts 14°
2026-05-03 22:26 50.85434 6.86776 5287 ft 286 kts 14°
2026-05-03 22:26 50.87326 6.87661 4708 ft 282 kts 14°
2026-05-03 22:26 50.89190 6.88538 4289 ft 272 kts 13°
2026-05-03 22:27 50.90936 6.89370 4190 ft 252 kts 13°
2026-05-03 22:27 50.92572 6.90153 4072 ft 240 kts 13°
2026-05-03 22:27 50.94138 6.90901 3962 ft 230 kts 13°
2026-05-03 22:27 50.95651 6.91618 3860 ft 227 kts 12°
2026-05-03 22:28 50.97105 6.92446 3744 ft 220 kts 29°
2026-05-03 22:28 50.98119 6.94199 3651 ft 218 kts 66°
2026-05-03 22:28 50.98367 6.96533 3492 ft 217 kts 99°
2026-05-03 22:28 50.97785 6.98704 2992 ft 214 kts 136°
2026-05-03 22:29 50.96750 7.00260 2619 ft 197 kts 143°
2026-05-03 22:29 50.95770 7.01679 2341 ft 185 kts 144°
2026-05-03 22:29 50.94856 7.03010 2097 ft 172 kts 144°
2026-05-03 22:29 50.94009 7.04243 1878 ft 160 kts 144°
2026-05-03 22:30 50.93209 7.05405 1671 ft 153 kts 144°
2026-05-03 22:30 50.92448 7.06512 1490 ft 146 kts 144°
2026-05-03 22:30 50.91710 7.07584 1263 ft 142 kts 140°
2026-05-03 22:30 50.90991 7.08629 1064 ft 139 kts 140°
2026-05-03 22:31 50.90279 7.09663 880 ft 138 kts 139°
2026-05-03 22:31 50.89586 7.10704 682 ft 137 kts 139°
2026-05-03 22:31 50.88881 7.11707 501 ft 136 kts 139°
2026-05-03 22:31 50.88182 7.12729 315 ft 137 kts 140°
2026-05-03 22:32 50.87499 7.13694 248 ft 118 kts 138°
2026-05-03 22:32 50.87012 7.14403 256 ft 74 kts 138°
2026-05-03 22:32 50.86662 7.14913 261 ft 63 kts 137°
2026-05-03 22:32 50.86440 7.15222 269 ft 31 kts 147°
2026-05-03 22:33 50.86307 7.15303 275 ft 15 kts 165°
2026-05-03 22:33 50.86204 7.15343 276 ft 15 kts 167°
2026-05-03 22:33 50.86106 7.15350 278 ft 14 kts 201°
2026-05-03 22:33 50.86045 7.15233 281 ft 16 kts 259°
2026-05-03 22:34 50.86087 7.15069 273 ft 17 kts 320°
2026-05-03 22:34 50.86184 7.14928 269 ft 22 kts 316°
2026-05-03 22:34 50.86274 7.14798 265 ft 18 kts 318°
2026-05-03 22:34 50.86372 7.14660 261 ft 15 kts 318°
2026-05-03 22:35 50.86459 7.14535 259 ft 19 kts 317°
2026-05-03 22:35 50.86553 7.14398 258 ft 19 kts 317°
2026-05-03 22:35 50.86659 7.14242 257 ft 22 kts 317°
2026-05-03 22:35 50.86760 7.14134 251 ft 14 kts 347°
2026-05-03 22:36 50.86805 7.14066 248 ft 6 kts 241°
2026-05-03 22:36 50.86773 7.13999 249 ft 8 kts 226°
2026-05-03 22:36 50.86771 7.13996 249 ft 0 kts 227°
2026-05-03 22:36 50.86771 7.13997 249 ft 0 kts 224°